Manteo, NC

10:15 AM EST on February 21, 2017 (GMT -0500)
Dare County Regional

Weather History for KMQI - February, 2014

Change the Weather History Date:

Saturday, February 22, 2014

  Actual Average Record
Temperature  
Mean Temperature 47 °F -  
Max Temperature 56 °F 51 °F 76 °F (1980)
Min Temperature 39 °F 38 °F 25 °F (1968)
Degree Days  
Heating Degree Days 18    
Moisture  
Dew Point 41 °F    
Average Humidity 75    
Maximum Humidity 97    
Minimum Humidity 58    
Precipitation  
Precipitation 0.00 in - - ()
Sea Level Pressure  
Sea Level Pressure 30.12 in    
Wind  
Wind Speed 4 mph (NNE)    
Max Wind Speed 10 mph    
Max Gust Speed -    
Visibility 10 miles    
Events      
Averages and records for this station are not official NWS values.
T = Trace of Precipitation, MM = Missing Value Source: NWS Daily Summary

Daily Weather History Graph

Daily Weather History Graph

Search for Another Location

Airport or City:

Trip Planner

Search our weather history database for the weather conditions in past years. The results will help you decide how hot, cold, wet, or windy it might be!

Date:

Astronomy

Feb. 22, 2014 Rise Set
Actual Time 6:41 AM EST 5:51 PM EST
Civil Twilight 6:15 AM EST 6:17 PM EST
Nautical Twilight 5:46 AM EST 6:46 PM EST
Astronomical Twilight 5:16 AM EST 7:16 PM EST
Moon 12:30 AM EST (2/22) 11:05 AM EST (2/22)
Length of Visible Light 12h 01m
Length of Day
11h 09m
Waning Gibbous, 50% of the Moon is Illuminated
Feb 22
Waning Gibbous
Feb 22
Last Quarter
Mar 1
New
Mar 8
First Quarter
Mar 16
Full

Hourly Weather History & Observations

Time (EST) Temp. Windchill Dew Point Humidity Pressure Visibility Wind Dir Wind Speed Gust Speed Precip Events Conditions
12:15 AM 53.1 °F - 43.2 °F 69% 30.00 in 10.0 mi WNW 4.6 mph - N/A   Mostly Cloudy
12:35 AM 52.7 °F - 43.0 °F 70% 30.00 in 10.0 mi WNW 3.5 mph - N/A   Mostly Cloudy
12:55 AM 52.7 °F - 42.4 °F 68% 30.01 in 10.0 mi WNW 4.6 mph - N/A   Mostly Cloudy
1:15 AM 52.5 °F - 42.6 °F 69% 30.01 in 10.0 mi NW 3.5 mph - N/A   Mostly Cloudy
1:35 AM 52.2 °F - 42.4 °F 69% 30.02 in 10.0 mi NW 3.5 mph - N/A   Scattered Clouds
1:55 AM 50.9 °F - 42.8 °F 74% 30.03 in 10.0 mi Calm Calm - N/A   Scattered Clouds
2:15 AM 51.3 °F - 43.7 °F 75% 30.03 in 10.0 mi Calm Calm - N/A   Mostly Cloudy
2:35 AM 51.1 °F - 43.5 °F 75% 30.03 in 10.0 mi WNW 3.5 mph - N/A   Scattered Clouds
2:55 AM 49.5 °F - 43.5 °F 80% 30.04 in 10.0 mi Calm Calm - N/A   Mostly Cloudy
3:15 AM 48.9 °F - 43.7 °F 82% 30.05 in 10.0 mi Calm Calm - N/A   Overcast
3:35 AM 48.0 °F - 43.5 °F 84% 30.05 in 10.0 mi Calm Calm - N/A   Mostly Cloudy
3:55 AM 49.5 °F - 43.2 °F 79% 30.06 in 10.0 mi NW 3.5 mph - N/A   Scattered Clouds
4:15 AM 49.5 °F - 43.0 °F 78% 30.06 in 10.0 mi NW 4.6 mph - N/A   Clear
4:35 AM 49.1 °F - 42.6 °F 78% 30.07 in 10.0 mi NW 4.6 mph - N/A   Clear
4:55 AM 48.4 °F - 42.1 °F 79% 30.08 in 10.0 mi NNW 5.8 mph - N/A   Clear
5:15 AM 48.2 °F - 41.2 °F 77% 30.08 in 10.0 mi NNW 6.9 mph - N/A   Clear
5:35 AM 48.2 °F - 40.3 °F 74% 30.09 in 10.0 mi NNW 4.6 mph - N/A   Clear
5:55 AM 47.5 °F - 39.4 °F 73% 30.09 in 10.0 mi NNW 6.9 mph - N/A   Clear
6:15 AM 47.3 °F - 39.2 °F 73% 30.10 in 10.0 mi NNW 5.8 mph - N/A   Clear
6:35 AM 46.8 °F - 38.8 °F 74% 30.11 in 10.0 mi NNW 5.8 mph - N/A   Clear
6:55 AM 46.6 °F - 38.8 °F 74% 30.11 in 10.0 mi NNW 5.8 mph - N/A   Clear
7:15 AM 46.4 °F 42.9 °F 38.7 °F 74% 30.12 in 10.0 mi North 6.9 mph - N/A   Clear
7:35 AM 46.6 °F - 39.2 °F 75% 30.13 in 10.0 mi North 6.9 mph - N/A   Clear
7:55 AM 48.0 °F - 40.5 °F 75% 30.14 in 10.0 mi North 5.8 mph - N/A   Clear
8:15 AM 49.1 °F - 41.7 °F 76% 30.15 in 10.0 mi North 8.1 mph - N/A   Clear
8:35 AM 50.4 °F - 40.6 °F 69% 30.16 in 10.0 mi North 9.2 mph - N/A   Clear
8:55 AM 51.1 °F - 37.4 °F 60% 30.16 in 10.0 mi NNE 9.2 mph - N/A   Clear
9:15 AM 51.8 °F - 37.6 °F 58% 30.16 in 10.0 mi NNE 10.4 mph - N/A   Clear
9:35 AM 51.1 °F - 37.0 °F 59% 30.17 in 10.0 mi NNE 9.2 mph - N/A   Clear
9:55 AM 51.3 °F - 37.8 °F 60% 30.18 in 10.0 mi NNE 9.2 mph - N/A   Clear
10:15 AM 51.3 °F - 37.9 °F 60% 30.18 in 10.0 mi NNE 9.2 mph - N/A   Clear
10:35 AM 51.1 °F - 38.3 °F 62% 30.18 in 10.0 mi NNE 9.2 mph - N/A   Clear
10:55 AM 51.1 °F - 38.3 °F 62% 30.18 in 10.0 mi NNE 8.1 mph - N/A   Clear
11:15 AM 52.5 °F - 39.2 °F 61% 30.17 in 10.0 mi NNE 5.8 mph - N/A   Clear
11:35 AM 54.3 °F - 40.3 °F 59% 30.17 in 10.0 mi NE 6.9 mph - N/A   Clear
11:55 AM 54.0 °F - 41.7 °F 63% 30.17 in 10.0 mi NNE 6.9 mph - N/A   Clear
12:15 PM 54.7 °F - 42.4 °F 63% 30.17 in 10.0 mi NNE 6.9 mph - N/A   Clear
12:35 PM 55.6 °F - 43.3 °F 63% 30.16 in 10.0 mi NE 6.9 mph - N/A   Clear
12:55 PM 55.2 °F - 43.9 °F 66% 30.15 in 10.0 mi NNE 6.9 mph - N/A   Clear
1:15 PM 55.4 °F - 44.1 °F 66% 30.15 in 10.0 mi NNE 8.1 mph - N/A   Clear
1:35 PM 55.4 °F - 44.6 °F 67% 30.14 in 10.0 mi NNE 6.9 mph - N/A   Clear
1:55 PM 55.8 °F - 44.1 °F 65% 30.14 in 10.0 mi ENE 5.8 mph - N/A   Clear
2:15 PM 55.2 °F - 43.3 °F 64% 30.14 in 10.0 mi NE 6.9 mph - N/A   Clear
2:35 PM 55.0 °F - 43.0 °F 64% 30.14 in 10.0 mi NNE 6.9 mph - N/A   Scattered Clouds
2:55 PM 54.7 °F - 42.6 °F 64% 30.14 in 10.0 mi NE 6.9 mph - N/A   Clear
3:15 PM 54.7 °F - 41.9 °F 62% 30.14 in 10.0 mi ENE 6.9 mph - N/A   Clear
3:35 PM 54.1 °F - 42.6 °F 65% 30.14 in 10.0 mi ENE 9.2 mph - N/A   Clear
3:55 PM 53.4 °F - 42.3 °F 66% 30.13 in 10.0 mi ENE 6.9 mph - N/A   Clear
4:15 PM 53.4 °F - 41.7 °F 65% 30.13 in 10.0 mi ENE 8.1 mph - N/A   Clear
4:35 PM 53.6 °F - 41.7 °F 64% 30.12 in 10.0 mi East 8.1 mph - N/A   Clear
4:55 PM 53.1 °F - 41.0 °F 64% 30.12 in 10.0 mi East 6.9 mph - N/A   Clear
5:15 PM 52.5 °F - 40.1 °F 63% 30.12 in 10.0 mi East 5.8 mph - N/A   Clear
5:35 PM 51.3 °F - 40.1 °F 66% 30.13 in 10.0 mi East 4.6 mph - N/A   Clear
5:55 PM 48.9 °F - 40.1 °F 72% 30.13 in 10.0 mi ENE 3.5 mph - N/A   Clear
6:15 PM 47.3 °F - 41.0 °F 79% 30.13 in 10.0 mi Calm Calm - N/A   Clear
6:35 PM 46.8 °F - 41.0 °F 80% 30.13 in 10.0 mi Calm Calm - N/A   Clear
6:55 PM 43.3 °F - 40.3 °F 89% 30.13 in 10.0 mi Calm Calm - N/A   Clear
7:15 PM 43.0 °F - 40.6 °F 91% 30.14 in 10.0 mi Calm Calm - N/A   Clear
7:35 PM 42.8 °F - 40.5 °F 91% 30.14 in 10.0 mi Calm Calm - N/A   Clear
7:55 PM 41.2 °F - 39.7 °F 95% 30.14 in 10.0 mi Calm Calm - N/A   Clear
8:15 PM 41.5 °F - 40.1 °F 95% 30.15 in 10.0 mi Calm Calm - N/A   Clear
8:35 PM 40.5 °F - 39.2 °F 95% 30.15 in 10.0 mi Calm Calm - N/A   Clear
8:55 PM 39.6 °F - 38.7 °F 97% 30.15 in 4.0 mi Calm Calm - N/A   Clear
9:15 PM 39.4 °F - 37.6 °F 93% 30.16 in 10.0 mi Calm Calm - N/A   Clear
9:35 PM 39.2 °F - 37.9 °F 95% 30.16 in 10.0 mi Calm Calm - N/A   Clear
9:55 PM 39.4 °F - 38.7 °F 97% 30.15 in 7.0 mi Calm Calm - N/A   Clear
10:15 PM 39.6 °F - 38.8 °F 97% 30.15 in 10.0 mi Calm Calm - N/A   Clear
10:35 PM 40.5 °F - 39.4 °F 96% 30.15 in 10.0 mi Calm Calm - N/A   Clear
10:55 PM 41.0 °F - 40.1 °F 97% 30.14 in 10.0 mi Calm Calm - N/A   Clear
11:15 PM 41.0 °F - 40.1 °F 97% 30.13 in 10.0 mi Calm Calm - N/A   Clear
11:35 PM 41.5 °F - 40.8 °F 97% 30.13 in 10.0 mi Calm Calm - N/A   Clear
11:55 PM 41.2 °F - 40.5 °F 97% 30.13 in 10.0 mi Calm Calm - N/A   Clear